{"data":{"norad_id":35932,"epoch":"2026-09-20T04:41:13.987392Z","epoch_age_seconds":44441,"freshness":"FRESH","line1":"1 35932U 09051B   26263.19530078  .00000591  00000+0  12601-3 0  9996","line2":"2 35932  98.3943 172.7006 0005465 281.7132  78.3455 14.62630664903043","mean_motion":14.62630664,"eccentricity":0.0005465,"inclination_deg":98.3943,"raan_deg":172.7006,"arg_perigee_deg":281.7132,"mean_anomaly_deg":78.3455,"bstar":0.00012601,"rev_number":90304,"period_min":98.45274240743,"perigee_km":680.83271106294,"apogee_km":688.55238375826,"semimajor_km":7062.8295474106,"source":"CELESTRAK","updated_at":"2026-09-20T09:00:47.987328Z"}}